Weather History for Dixon AP, Dixon, WY, WY

Change the Weather History Date:

Friday, December 20, 2013

  Actual Average (KCAG) Record (KCAG)
Temperature  
Mean Temperature 12 °F 16 °F  
Max Temperature 24 °F 29 °F 44 °F (2004)
Min Temperature 0 °F 3 °F -20 °F (2012)
Degree Days  
Heating Degree Days 53 49  
Month to date heating degree days 922  
Since 1 July heating degree days 3007  
Cooling Degree Days 0 0  
Month to date cooling degree days 0  
Year to date cooling degree days 142  
Moisture  
Dew Point 12 °F    
Average Humidity 83    
Maximum Humidity 92    
Minimum Humidity 64    
Precipitation  
Precipitation 0.00 in 0.03 in 0.76 in (2010)
Month to date precipitation 0.68  
Year to date precipitation 15.74  
Sea Level Pressure  
Sea Level Pressure 29.78 in    
Wind  
Wind Speed 3 mph (NNE)    
Max Wind Speed 13 mph    
Max Gust Speed -    
Visibility 7 miles    
Events Snow    
T = Trace of Precipitation, MM = Missing Value Source: NWS Daily Summary

Daily Weather History Graph

Daily Weather History Graph

Search for Another Location

Airport:

Trip Planner

Search our weather history database for the weather conditions in past years. The results will help you decide how hot, cold, wet, or windy it might be!

Date:

Astronomy

Dec. 20, 2013 Rise Set
Actual Time 7:31 AM MST 4:44 PM MST
Civil Twilight 6:59 AM MST 5:15 PM MST
Nautical Twilight 6:25 AM MST 5:50 PM MST
Astronomical Twilight 5:51 AM MST 6:23 PM MST
Moon 8:09 PM MST (12/20) 9:25 AM MST (12/20)
Length of Visible Light 10h 15m
Length of Day
9h 13m
Waning Gibbous, 90% of the Moon is Illuminated
Dec 20
Waning Gibbous
Dec 25
Last Quarter
Jan 1
New
Jan 7
First Quarter
Jan 15
Full

Hourly Weather History & Observations

Time (MST) Temp. Windchill Dew Point Humidity Pressure Visibility Wind Dir Wind Speed Gust Speed Precip Events Conditions
12:15 AM 18.5 °F 11.7 °F 16.3 °F 91% 29.77 in 1.5 mi WSW 4.6 mph - N/A Snow Light Snow
12:35 AM 18.3 °F 11.5 °F 16.2 °F 91% 29.77 in 1.2 mi SW 4.6 mph - N/A Snow Light Snow
12:55 AM 18.3 °F 13.1 °F 16.0 °F 91% 29.77 in 1.0 mi WSW 3.5 mph - N/A Snow Snow
1:15 AM 18.3 °F 10.2 °F 16.2 °F 91% 29.76 in 1.0 mi WSW 5.8 mph - N/A Snow Light Snow
1:35 AM 18.3 °F 8.2 °F 16.3 °F 92% 29.77 in 1.5 mi West 8.1 mph - N/A Snow Light Snow
1:55 AM 18.3 °F 7.3 °F 16.2 °F 91% 29.78 in 1.2 mi West 9.2 mph - N/A Snow Light Snow
2:15 AM 17.6 °F 6.4 °F 14.4 °F 87% 29.79 in 3.0 mi West 9.2 mph - N/A Snow Light Snow
2:35 AM 17.4 °F 9.1 °F 14.4 °F 88% 29.79 in 10.0 mi WSW 5.8 mph - N/A   Overcast
2:55 AM 17.6 °F - 14.4 °F 87% 29.79 in 10.0 mi Calm Calm - N/A   Overcast
3:15 AM 18.0 °F - 14.9 °F 88% 29.78 in 7.0 mi Calm Calm - N/A Snow Light Snow
3:35 AM 18.3 °F - 15.3 °F 88% 29.78 in 10.0 mi Calm Calm - N/A   Overcast
3:55 AM 18.3 °F - 15.1 °F 87% 29.78 in 7.0 mi Calm Calm - N/A Snow Light Snow
4:15 AM 18.1 °F - 15.3 °F 88% 29.78 in 5.0 mi Calm Calm - N/A Snow Light Snow
4:35 AM 18.1 °F - 15.6 °F 90% 29.78 in 4.0 mi Calm Calm - N/A Snow Light Snow
4:55 AM 18.0 °F 11.1 °F 15.6 °F 91% 29.78 in 1.5 mi West 4.6 mph - N/A Snow Light Snow
5:15 AM 17.6 °F 10.7 °F 15.4 °F 91% 29.79 in 1.0 mi West 4.6 mph - N/A Snow Snow
5:35 AM 17.6 °F - 15.3 °F 91% 29.79 in 2.0 mi Calm Calm - N/A Snow Light Snow
5:55 AM 17.4 °F - 14.9 °F 90% 29.78 in 3.0 mi Calm Calm - N/A Snow Light Snow
6:15 AM 17.4 °F - 15.1 °F 91% 29.79 in 3.0 mi Calm Calm - N/A Snow Light Snow
6:35 AM 17.6 °F - 15.4 °F 91% 29.78 in 1.5 mi Calm Calm - N/A Snow Light Snow
6:55 AM 17.4 °F - 14.9 °F 90% 29.79 in 1.5 mi Calm Calm - N/A Snow Light Snow
7:15 AM 17.4 °F - 15.3 °F 91% 29.79 in 1.2 mi Calm Calm - N/A Snow Light Snow
7:35 AM 17.4 °F - 15.3 °F 91% 29.79 in 0.8 mi Calm Calm - N/A Snow Snow
7:55 AM 17.6 °F - 15.3 °F 91% 29.79 in 1.0 mi Calm Calm - N/A Snow Light Snow
8:15 AM 18.1 °F - 15.3 °F 88% 29.80 in 2.0 mi Calm Calm - N/A Snow Light Snow
8:35 AM 18.1 °F - 15.4 °F 89% 29.80 in 3.0 mi Calm Calm - N/A Snow Light Snow
8:55 AM 18.7 °F - 15.8 °F 89% 29.80 in 7.0 mi Calm Calm - N/A   Overcast
9:15 AM 18.9 °F - 15.6 °F 87% 29.81 in 4.0 mi Calm Calm - N/A Snow Light Snow
9:35 AM 19.4 °F - 16.2 °F 87% 29.81 in 0.5 mi Calm Calm - N/A Snow Snow
9:55 AM 19.2 °F 14.1 °F 16.2 °F 88% 29.81 in 2.0 mi South 3.5 mph - N/A Snow Light Snow
10:15 AM 19.8 °F 14.7 °F 16.3 °F 87% 29.81 in 5.0 mi SSE 3.5 mph - N/A Snow Light Snow
10:35 AM 19.9 °F - 15.8 °F 84% 29.81 in 10.0 mi Calm Calm - N/A   Overcast
10:55 AM 20.5 °F - 15.6 °F 81% 29.81 in 10.0 mi Calm Calm - N/A   Overcast
11:15 AM 20.1 °F - 15.8 °F 83% 29.80 in 10.0 mi Calm Calm - N/A   Overcast
11:35 AM 21.2 °F - 16.9 °F 83% 29.80 in 10.0 mi Calm Calm - N/A   Overcast
11:55 AM 21.9 °F - 17.2 °F 82% 29.79 in 10.0 mi Calm Calm - N/A   Overcast
12:15 PM 23.0 °F 17.0 °F 16.3 °F 76% 29.79 in 10.0 mi West 4.6 mph - N/A   Overcast
12:35 PM 23.7 °F 17.8 °F 15.6 °F 71% 29.79 in 10.0 mi West 4.6 mph - N/A   Overcast
12:55 PM 23.7 °F - 15.1 °F 70% 29.79 in 10.0 mi Calm Calm - N/A   Overcast
1:15 PM 23.9 °F 19.5 °F 15.8 °F 71% 29.79 in 10.0 mi WNW 3.5 mph - N/A   Overcast
1:35 PM 23.5 °F - 15.8 °F 72% 29.78 in 10.0 mi Calm Calm - N/A   Overcast
1:55 PM 24.4 °F - 16.2 °F 71% 29.78 in 10.0 mi Calm Calm - N/A   Overcast
2:15 PM 24.1 °F 16.0 °F 13.5 °F 64% 29.78 in 10.0 mi West 6.9 mph - N/A   Overcast
2:35 PM 22.6 °F 18.0 °F 13.1 °F 67% 29.78 in 10.0 mi West 3.5 mph - N/A   Overcast
2:55 PM 22.1 °F - 12.6 °F 67% 29.78 in 10.0 mi Calm Calm - N/A   Overcast
3:15 PM 22.8 °F - 12.9 °F 66% 29.78 in 10.0 mi Calm Calm - N/A   Overcast
3:35 PM 20.3 °F - 10.2 °F 65% 29.78 in 10.0 mi Calm Calm - N/A   Overcast
3:55 PM 17.1 °F - 8.1 °F 68% 29.77 in 10.0 mi Calm Calm - N/A   Scattered Clouds
4:15 PM 12.9 °F - 5.4 °F 72% 29.77 in 10.0 mi Calm Calm - N/A   Clear
4:35 PM 8.6 °F 2.0 °F 3.2 °F 79% 29.78 in 10.0 mi NNE 3.5 mph - N/A   Scattered Clouds
4:55 PM 9.0 °F - 4.5 °F 82% 29.79 in 10.0 mi Calm Calm - N/A   Overcast
5:15 PM 9.7 °F -0.1 °F 5.5 °F 83% 29.79 in 10.0 mi NE 5.8 mph - N/A   Overcast
5:35 PM 12.6 °F 3.4 °F 8.4 °F 83% 29.79 in 10.0 mi NE 5.8 mph - N/A   Overcast
5:55 PM 14.0 °F 3.9 °F 9.9 °F 84% 29.79 in 10.0 mi ENE 6.9 mph - N/A   Overcast
6:15 PM 13.6 °F - 9.3 °F 83% 29.79 in 10.0 mi Calm Calm - N/A   Overcast
6:35 PM 12.7 °F - 7.9 °F 81% 29.78 in 10.0 mi Calm Calm - N/A   Overcast
6:55 PM 7.7 °F - 3.9 °F 85% 29.78 in 10.0 mi Calm Calm - N/A   Scattered Clouds
7:15 PM 5.7 °F -4.8 °F 2.5 °F 86% 29.78 in 10.0 mi NE 5.8 mph - N/A   Scattered Clouds
7:35 PM 3.2 °F - -1.1 °F 82% 29.79 in 10.0 mi Calm Calm - N/A   Scattered Clouds
7:55 PM 0.5 °F -7.3 °F -2.9 °F 85% 29.79 in 10.0 mi NE 3.5 mph - N/A   Clear
8:15 PM 1.6 °F -11.0 °F -1.5 °F 87% 29.79 in 10.0 mi East 6.9 mph - N/A   Clear
8:35 PM 3.6 °F -3.8 °F 0.5 °F 87% 29.78 in 10.0 mi ENE 3.5 mph - N/A   Clear
8:55 PM 1.8 °F -9.5 °F -1.8 °F 85% 29.77 in 10.0 mi ENE 5.8 mph - N/A   Clear
9:15 PM 8.4 °F - 5.4 °F 87% 29.77 in 10.0 mi Calm Calm - N/A   Clear
9:35 PM 7.3 °F -5.2 °F 3.9 °F 86% 29.77 in 10.0 mi East 8.1 mph - N/A   Clear
9:55 PM 8.4 °F -3.9 °F 4.6 °F 85% 29.76 in 10.0 mi East 8.1 mph - N/A   Clear
10:15 PM 8.2 °F -7.5 °F 4.5 °F 85% 29.75 in 10.0 mi East 12.7 mph - N/A   Clear
10:35 PM 10.0 °F -2.9 °F 5.5 °F 82% 29.75 in 10.0 mi East 9.2 mph - N/A   Clear
10:55 PM 9.7 °F -3.3 °F 5.0 °F 81% 29.74 in 10.0 mi ENE 9.2 mph - N/A   Clear
11:15 PM 10.4 °F 0.8 °F 6.1 °F 83% 29.74 in 10.0 mi East 5.8 mph - N/A   Clear
11:35 PM 12.2 °F 0.7 °F 6.6 °F 78% 29.73 in 10.0 mi East 8.1 mph - N/A   Clear
11:55 PM 11.5 °F 2.1 °F 6.3 °F 80% 29.71 in 10.0 mi ENE 5.8 mph - N/A   Clear